Погода в Кировограде

Погода в Кировограде : погода сейчас, прогноз погоды и архив. Всё, что Вы хотите узнать о погоде в Кировограде!

Хотите узнать прогноз погоды в Кировограде? Тогда Вам сюда: Погода в Кировограде

Поиск расширенной информации на нашем сайте:

Другие новости

Новости СМИ2

Главная страница сайта

Новости сайта

03.07.2017

Напоминаем, что на нашем специализированном сайте Метеоцентр.Азия вы можете получить высокодетализированные автоматические прогнозы погоды по пунктам России, СНГ и мира в авиационном формате (включающие направление и скорость ветра, видимость, явления погоды, количество и форму облачности, нижнюю и верхнюю границу облачности).

Рекомендуем: Банкетный зал на 100 человек monaco банкетный зал на 120 человек.

Погода в Кировограде - сегодня

Время (UTC), дата Ветер
(°,м/с) 
Видим.   Явления Облачность Т
(°С)
Тd
(°С)
f(%) Тe
(°С)
Pmin
(гПа)
dP
(гПа)
Po
(мм)
O2
(г/м3)
Тmin Tmax R s Состояние
почвы
09 17.06.18 060 (СВ) 20000 м    10/3 1000 м верхняя 
[Cu hum|Ci fib]
+27.1 +16.5 52 +39  1010.9  0.2  744  269           
12 17.06.18 090 (В) 20000 м    9/4 1000 м средняя 
[Cu med, cong|Ac trans]
+29.5 +16.7 46 +42  1010.1  -0.7  743  267           
15 17.06.18 090 (В) 20000 м    9/3 1000 м верхняя 
[Cu med, cong|Ci fib]
+29 +16.4 47 +40  1010.2  0.1  743  267           
18 17.06.18 070 (В) 20000 м    10/0 средняя, верхняя 
[Ac trans|Ci fib]
+24 +13 50 +30  1011.6  744  273    +30.3       
21 17.06.18 080 (В) 10 км    10/0 средняя, верхняя 
[Ac trans|Ci fib]
+22.7 +12.6 53 +28  1012.2  0.5  744  274           
00 18.06.18 080 (В) 10 км    3/0 средняя 
[Ac trans]
+20.2 +10.5 54 +22  1012.6  0.2  745  277           
03 18.06.18 070 (В) 20000 м    3/0 средняя 
[Ac trans]
+18.3 +9.4 56 +20  1012.7  745  279           
06 18.06.18 070 (В) 20000 м    4/0 верхняя 
[Ci fib]
+23.4 +10.7 45 +26  1012.7  0.3  745  274  +17.6  +3.2       
09 18.06.18 060 (СВ) 20000 м    3/0 верхняя 
[Ci fib]
+27 +8.5 31 +27  1012.8  0.4  745  272           
12 18.06.18 090 (В) 20000 м    3/0 верхняя 
[Ci fib]
+28.5 +3.3 20 +29  1012.6  -0.2  745  271           
15 18.06.18 050 (СВ) 20000 м    ясно 
+27.9 +5.2 24 +28  1012.2  -0.4  745  271           
18 18.06.18 020 (С) 20000 м    ясно 
+24 +8.3 37 +24  1013.2  0.8  745  275    +29.4       
21 18.06.18 010 (С) 10 км    ясно 
+19.1 +11.1 60 +23  1014.8  1.2  746  279           
00 19.06.18 320 (СЗ) 10 км    ясно 
+16.3 +12.1 76 +21  1015.3  0.3  746  281           
03 19.06.18 310 (СЗ) 20000 м    3/0 средняя 
[Ac trans]
+13.3 +12.2 93 +18  1016  0.5  747  285           
06 19.06.18 030 (СВ) 20000 м    ясно 
+23.8 +14.2 55 +31  1015.9  0.6  747  274  +13         
09 19.06.18 060 (СВ) 20000 м    ясно 
+28 +8 28 +28  1015.7  0.1  747  272           
12 19.06.18 340 (С) 20000 м    3/0 верхняя 
[Ci fib]
+29 +7.4 26 +29  1015.2  -0.5  747  271           
15 19.06.18 350 (С) 20000 м    ясно 
+29.1 +11.5 34 +32  1014.7  -0.4  747  270           
18 19.06.18 020 (С) 20000 м    3/0 верхняя 
[Ci fib]
+25.3 +10.2 39 +27  1015.8  0.8  747  274    +30.1       
21 19.06.18 290 (З) 10 км    ясно 
+20.2 +11.8 58 +24  1016.5  0.4  747  278           
00 20.06.18 310 (СЗ) 10 км    ясно 
+17.6 +13.6 77 +25  1016.9  0.2  748  280           
03 20.06.18 тихо ()   20000 м    4/0 верхняя 
[Ci fib]
+18 +14 77 +25  1017.3  0.4  748  280           
06 20.06.18 330 (СЗ) 20000 м    4/0 верхняя 
[Ci fib]
+24.3 +17.4 65 +37  1017.2  0.4  748  273  +17.1         
09 20.06.18 330 (СЗ) 20000 м    6/6 1000 м 
[Cu med, cong]
+28.6 +14.8 43 +37  1016.9  -0.1  748  270           
Время (UTC), дата Ветер
(°,м/с) 
Видим.   Явления Облачность Т
(°С)
Тd
(°С)
f(%) Тe
(°С)
Pmin
(гПа)
dP
(гПа)
Po
(мм)
O2
(г/м3)
Тmin Tmax R s Состояние
почвы

Для получения пояснительной информации подведите курсор к названию столбца.

ПОГОДА в Кировограде - архив

Всё, что Вы хотите узнать о погоде в Кировограде - удобно и подробно!

Выберите нужную дату (начиная с 1 января 2015* года) и нажмите кнопку "Найти".
Будут отображены архивные сводки погоды по пункту Кировоград, начиная с указанной даты.


Отображать данные в формате CSV (для использования в таблицах Excel)


Внимание! Наш архив погоды предназначен исключительно для личного некоммерческого использования в познавательных целях. Если Вам необходимы официальные справки о состоянии погоды (для производственных, юридических, коммерческих и т.п. целей), обращайтесь в органы Росгидромета.

*Примечание: данная дата относится к архиву по метеостанциям СССР (Россия, СНГ, Балтия).
Архив по метеостанциям Зарубежной Европы и Азии (кроме Китая) хранится 10 дней, по другим регионам земного шара (Китай, Африка, Америка, Австралия, Океания) - 1 день.

Кировоград - район местоположения метеостанции


Название, широта, долгота, высота метеостанции:
Кировоград 48.5°ш. 32.2°д. 171 м над ур. моря [Украина]

Дополнительная информация

В oтличие oт бoльшинства пoгoдных сайтoв мы публикуем пoдрoбную метеoинфoрмацию в детальнoм прoфессиoнальнoм фoрмате.

Характеристики температуры и влажнoсти вoздуха измеряются на высoте 2 м в тени вдали oт зданий и деревьев.
Скoрoсть ветра измеряется на высoте 10 м (на урoвне рoста челoвека скoрoсть ветра ниже в 1.5-2 раза). Если метеoстанция нахoдится в гoрoде или в лесу, тo скoрoсть ветра занижена на 2-4 м/с пo сравнению с oткрытым местoм. Скoрoсть ветра над акватoриями крупных рек и oзёр, а также на вершинах хoлмoв на 2-5 м/с выше, чем в oбычных услoвиях.
Атмoсфернoе давление в разных тoчках местнoсти мoжет значительнo oтличаться oт давления на метеoстанции, в зависимoсти oт услoвий рельефа (при пoдъёме на 10 м давление пoнижается примернo на 1 мм рт.ст.).